Regional Weather Roundup
Issued by NWS

Home | Current Version | Previous Version | Text Only | Print | Product List | Glossary On
Versions: 1 2 3 4 5 6 7 8 9 10 11 12 13 14 15 16 17 18 19 20 21 22 23 24 25 26 27 28 29 30 31 32 33 34 35 36 37 38 39 40 41 42 43 44 45 46 47 48 49 50
000
ASCA44 KEWX 201320
RWRMX

LATIN AMERICA AND CARIBBEAN REGIONAL WEATHER ROUNDUP
NATIONAL WEATHER SERVICE AUSTIN/SAN ANTONIO TX
700 AM CST SAT DEC 20 2014

NOTE: "FAIR" INDICATED FEW OR NO CLOUDS BELOW 12,000 FEET WITH NO
SIGNIFICANT WEATHER AND/OR OBSTRUCTIONS TO VISIBILITY.

BAJA CALIFORNIA

CITY           SKY/WX    TMP DP  RH WIND       PRES   REMARKS
LA PAZ         CLEAR     50  46  87 S6        30.02  WCI  48
S.J. DEL CABO  CLEAR     61  52  72 CALM      30.00
TIJUANA        PTCLDY    50  45  81 CALM      30.16R

NORTHWESTERN MEXICO

CITY           SKY/WX    TMP DP  RH WIND       PRES   REMARKS
DURANGO        CLEAR     25  19  80 N3        30.20R
HERMOSILLO     CLEAR     45  41  87 CALM      30.05R
OBREGON        CLEAR     48  37  66 SW9       29.97  WCI  44

NORTHEASTERN MEXICO

CITY           SKY/WX    TMP DP  RH WIND       PRES   REMARKS
CHIHUAHUA      CLEAR     27  21  80 S8        30.17  WCI  18
MATAMOROS      CLOUDY    59  57  94 NW6       30.13
MONCLOVA       CLOUDY    54  54 100 NE5       30.16  FOG
MONTERREY      CLOUDY    57  54  88 SE8       30.13R
NUEVO LAREDO   CLOUDY    52  48  87 NE9       30.18  FOG
REYNOSA        CLOUDY    57  54  88 N9        30.15
SALTILLO       FOG       50  46  87 N9        30.19  VSB 1/2 WCI  46
TORREON        CLEAR     46  34  61 CALM      30.14R
CD. VICTORIA   CLOUDY    59  59 100 NW5       30.12

WESTERN MEXICO

CITY           SKY/WX    TMP DP  RH WIND       PRES   REMARKS
AGUASCALIENTES PTCLDY    46  34  61 S6        30.22  WCI  43
COLIMA         CLEAR     68  50  52 N9        30.01R
DEL BAJIO      PTCLDY    43  37  81 N3        30.27R
GUADALAJARA    MOCLDY    46  41  81 CALM      30.15
MANZANILLO     PTCLDY    68  66  94 N8        29.85
MAZATLAN       PTCLDY    50  48  93 NW7       29.93R WCI  47
P. VALLARTA    MOCLDY    64  63  94 NE3       29.93R
URUAPAN        CLEAR     48  45  87 CALM      30.16

CENTRAL MEXICO

CITY           SKY/WX    TMP DP  RH WIND       PRES   REMARKS
CUERNAVACA       N/A    N/A N/A N/A MISG        N/A
MEXICO CITY    PTCLDY    48  43  81 E6        30.30R WCI  46
MORELIA        CLEAR     37  36  93 CALM      30.22
POZA RICA      LGT RAIN  68  68 100 N9        30.06  VSB 1
PUEBLA         CLEAR     39  36  87 NW8       30.31  WCI  34
QUERETARO      MOCLDY    46  43  87 CALM      30.29R FOG
S. LUIS POTOSI PTCLDY    52  48  87 SE5       30.20R
TAMPICO        CLOUDY    66  59  77 N23       30.06S
TOLUCA         FOG       37  32  81 CALM      30.37R VSB 1/4

SOUTHERN MEXICO

CITY           SKY/WX    TMP DP  RH WIND       PRES   REMARKS
ACAPULCO       PTCLDY    72  70  94 N3        29.89R
B. DE HUATULCO   N/A    N/A N/A N/A MISG        N/A
OAXACA         CLOUDY    52  48  87 CALM      30.24R
P. ESCONDIDO   CLEAR     73  70  88 E12       30.04
VERACRUZ       MOCLDY    72  68  88 W3        30.01R
ZIHUATANEJO      N/A    N/A N/A N/A MISG        N/A

YUCATAN PENINSULA

CITY           SKY/WX    TMP DP  RH WIND       PRES   REMARKS
CAMPECHE       CLEAR     70  68  94 CALM      29.96R
CANCUN         PTCLDY    73  73 100 NW2       29.98R
CHETUMAL       FOG       73  73 100 CALM      29.96R VSB 1/2
CD. DEL CARMEN MOCLDY    75  72  88 N5        29.99
COZUMEL        PTCLDY    70  70 100 CALM      29.97R
MERIDA         CLOUDY    73  72  94 CALM      29.99R FOG
MINATITLAN     CLOUDY    72  64  78 CALM      29.97
TAPACHULA      PTCLDY    73  70  88 CALM      29.92R
TUX. GUTIERREZ PTCLDY    66  63  88 CALM      30.02R
VILLAHERMOSA   MOCLDY    72  70  94 SW9       30.02R

CENTRAL AMERICA

CITY           SKY/WX    TMP DP  RH WIND       PRES   REMARKS
BELIZE CITY    MOCLDY    73  73 100 CALM      29.98R
MANAGUA        MOSUNNY   73  68  83 SE5       29.89R

CARIBBEAN

CITY           SKY/WX    TMP DP  RH WIND       PRES   REMARKS
ARUBA          MOSUNNY   84  72  65 E17       29.92S
CURACAO        MOSUNNY   84  72  65 E12       29.97R
KINGSTON       MOSUNNY   81  68  65 VRB2      29.97R
NASSAU         PTSUNNY   68  63  83 CALM      30.12R
SAN JUAN       MOSUNNY   79  70  73 E6        30.05R
SANTO DOMINGO  MOSUNNY   73  70  88 N7        30.06R
ST. KITTS      MOSUNNY   82  73  74 NE14      30.03R
ST. MAARTEN    MOSUNNY   81  70  69 E10       30.03R

$$



USA.gov is the U.S. government's official web portal to all federal, state and local government web resources and services.